When you browse on this site, cookies collect data to enhance your experience and personalize the content and advertising you see.
Visit our Privacy Policy to learn more. By continuing to use the site, you agree to this use of cookies and data.
  • In Spain
  • List of Countries
  • For 7 days
  • Water Temperature
  • Weather Map
  • Weather Widgets
  • user-avatar
    Login

    Hourly Weather Pavlodar

    Today, 23 August, Friday

    Time Temperature Precipitation Wind Pressure Humidity
    00:00 +13°C° 0 mm 4 mps 748 mmHg 72%
    01:00 +13°C° 0 mm 3 mps 748 mmHg 75%
    02:00 +12°C° 0 mm 3 mps 748 mmHg 78%
    03:00 +12°C° 0 mm 3 mps 749 mmHg 79%
    04:00 +12°C° 0 mm 3 mps 749 mmHg 80%
    05:00 +11°C° 0 mm 3 mps 750 mmHg 83%
    06:00 +13°C° 0 mm 4 mps 750 mmHg 77%
    07:00 +15°C° 0 mm 5 mps 750 mmHg 70%
    08:00 +17°C° 0 mm 5 mps 751 mmHg 63%
    09:00 +20°C° 0 mm 5 mps 751 mmHg 57%
    10:00 +22°C° 0 mm 6 mps 751 mmHg 51%
    11:00 +23°C° 0 mm 6 mps 751 mmHg 44%
    12:00 +24°C° 0 mm 6 mps 751 mmHg 42%
    13:00 +24°C° 0 mm 6 mps 751 mmHg 40%
    14:00 +26°C° 0 mm 6 mps 751 mmHg 39%
    15:00 +25°C° 0 mm 5 mps 751 mmHg 40%
    16:00 +25°C° 0 mm 5 mps 751 mmHg 42%
    17:00 +23°C° 0 mm 5 mps 751 mmHg 43%
    18:00 +22°C° 0 mm 4 mps 751 mmHg 45%
    19:00 +21°C° 0 mm 3 mps 751 mmHg 47%
    20:00 +19°C° 0 mm 2 mps 751 mmHg 49%
    21:00 +19°C° 0 mm 2 mps 752 mmHg 50%
    22:00 +19°C° 0 mm 3 mps 752 mmHg 51%
    23:00 +18°C° 0 mm 3 mps 752 mmHg 52%

    Tomorrow, 24 August, Saturday

    Time Temperature Precipitation Wind Pressure Humidity
    00:00 +18°C° 0 mm 3 mps 752 mmHg 53%
    01:00 +18°C° 0 mm 3 mps 752 mmHg 53%
    02:00 +18°C° 0 mm 3 mps 752 mmHg 53%
    03:00 +18°C° 0 mm 3 mps 752 mmHg 54%
    04:00 +18°C° 0 mm 3 mps 752 mmHg 54%
    05:00 +18°C° 0 mm 3 mps 752 mmHg 55%
    06:00 +19°C° 0 mm 3 mps 752 mmHg 52%
    07:00 +21°C° 0 mm 3 mps 752 mmHg 48%
    08:00 +22°C° 0 mm 4 mps 752 mmHg 45%
    09:00 +25°C° 0 mm 4 mps 752 mmHg 42%
    10:00 +26°C° 0 mm 5 mps 752 mmHg 39%
    11:00 +27°C° 0 mm 6 mps 753 mmHg 35%
    12:00 +27°C° 0 mm 6 mps 752 mmHg 35%
    13:00 +28°C° 0 mm 6 mps 751 mmHg 34%
    14:00 +28°C° 0 mm 6 mps 751 mmHg 33%
    15:00 +28°C° 0 mm 6 mps 751 mmHg 34%
    16:00 +28°C° 0 mm 6 mps 751 mmHg 34%
    17:00 +28°C° 0 mm 5 mps 751 mmHg 35%
    18:00 +27°C° 0 mm 5 mps 751 mmHg 38%
    19:00 +26°C° 0 mm 4 mps 750 mmHg 41%
    20:00 +25°C° 0 mm 3 mps 750 mmHg 43%
    21:00 +24°C° 0 mm 3 mps 750 mmHg 46%
    22:00 +24°C° 0 mm 2 mps 750 mmHg 49%
    23:00 +23°C° 0 mm 2 mps 751 mmHg 52%

    Day after tomorrow, 25 August, Sunday

    Time Temperature Precipitation Wind Pressure Humidity
    00:00 +23°C° 0 mm 2 mps 750 mmHg 55%
    01:00 +21°C° 0 mm 2 mps 750 mmHg 58%
    02:00 +22°C° 0 mm 1 mps 750 mmHg 61%
    03:00 +20°C° 0 mm 2 mps 750 mmHg 64%
    04:00 +20°C° 0 mm 2 mps 751 mmHg 66%
    05:00 +19°C° 0 mm 3 mps 751 mmHg 69%
    06:00 +20°C° 0 mm 3 mps 751 mmHg 63%
    07:00 +20°C° 0 mm 3 mps 751 mmHg 57%
    08:00 +21°C° 0 mm 3 mps 751 mmHg 51%
    09:00 +22°C° 0 mm 3 mps 751 mmHg 47%
    10:00 +24°C° 0 mm 3 mps 751 mmHg 42%
    11:00 +25°C° 0 mm 3 mps 752 mmHg 37%
    12:00 +26°C° 0 mm 3 mps 751 mmHg 34%
    13:00 +26°C° 0 mm 3 mps 751 mmHg 31%
    14:00 +27°C° 0 mm 3 mps 751 mmHg 29%
    15:00 +27°C° 0 mm 3 mps 751 mmHg 28%
    16:00 +27°C° 0 mm 3 mps 751 mmHg 28%
    17:00 +27°C° 0 mm 2 mps 751 mmHg 28%
    18:00 +24°C° 0 mm 2 mps 751 mmHg 33%
    19:00 +22°C° 0 mm 1 mps 751 mmHg 38%
    20:00 +20°C° 0 mm 1 mps 751 mmHg 43%
    21:00 +20°C° 0 mm 1 mps 751 mmHg 44%
    22:00 +19°C° 0 mm 1 mps 751 mmHg 45%
    23:00 +18°C° 0 mm 2 mps 751 mmHg 46%

    26 August, Monday

    Time Temperature Precipitation Wind Pressure Humidity
    00:00 +18°C° 0 mm 2 mps 751 mmHg 46%
    01:00 +18°C° 0 mm 2 mps 750 mmHg 47%
    02:00 +17°C° 0 mm 2 mps 750 mmHg 47%
    03:00 +18°C° 0 mm 2 mps 750 mmHg 46%
    04:00 +18°C° 0 mm 3 mps 750 mmHg 44%
    05:00 +18°C° 0 mm 3 mps 750 mmHg 43%
    06:00 +20°C° 0 mm 4 mps 750 mmHg 43%
    07:00 +21°C° 0 mm 4 mps 750 mmHg 42%
    08:00 +23°C° 0 mm 5 mps 749 mmHg 42%
    09:00 +26°C° 0 mm 5 mps 749 mmHg 40%
    10:00 +28°C° 0 mm 5 mps 749 mmHg 38%
    11:00 +30°C° 0 mm 5 mps 749 mmHg 36%
    12:00 +30°C° 0 mm 5 mps 748 mmHg 35%
    13:00 +30°C° 0 mm 5 mps 748 mmHg 34%
    14:00 +32°C° 0 mm 4 mps 747 mmHg 32%
    15:00 +32°C° 0 mm 4 mps 747 mmHg 33%
    16:00 +30°C° 0 mm 4 mps 747 mmHg 33%
    17:00 +30°C° 0 mm 4 mps 746 mmHg 34%
    18:00 +28°C° 0 mm 5 mps 746 mmHg 38%
    19:00 +27°C° 0 mm 5 mps 746 mmHg 41%
    20:00 +25°C° 0 mm 5 mps 745 mmHg 45%
    21:00 +24°C° 0 mm 6 mps 745 mmHg 42%
    22:00 +24°C° 0 mm 6 mps 745 mmHg 40%
    23:00 +23°C° 0 mm 7 mps 744 mmHg 37%

    27 August, Tuesday

    Time Temperature Precipitation Wind Pressure Humidity
    00:00 +23°C° 0 mm 7 mps 744 mmHg 35%
    01:00 +22°C° 0 mm 6 mps 743 mmHg 33%
    02:00 +22°C° 0 mm 6 mps 743 mmHg 32%
    03:00 +22°C° 0 mm 6 mps 742 mmHg 32%
    04:00 +21°C° 0 mm 6 mps 742 mmHg 32%
    05:00 +21°C° 0 mm 6 mps 742 mmHg 32%
    06:00 +23°C° 0 mm 6 mps 741 mmHg 34%
    07:00 +26°C° 0 mm 7 mps 741 mmHg 36%
    08:00 +27°C° 0 mm 7 mps 741 mmHg 38%
    09:00 +29°C° 0 mm 7 mps 741 mmHg 35%
    10:00 +30°C° 0 mm 6 mps 741 mmHg 31%
    11:00 +33°C° 0 mm 6 mps 741 mmHg 27%
    12:00 +32°C° 0 mm 7 mps 741 mmHg 30%
    13:00 +31°C° 0 mm 8 mps 741 mmHg 33%
    14:00 +29°C° 0 mm 9 mps 741 mmHg 36%
    15:00 +26°C° 0.6 mm 8 mps 741 mmHg 48%
    16:00 +22°C° 0.6 mm 7 mps 741 mmHg 61%
    17:00 +19°C° 0.6 mm 6 mps 742 mmHg 73%
    18:00 +17°C° 0.2 mm 5 mps 742 mmHg 75%
    19:00 +18°C° 0.2 mm 4 mps 743 mmHg 77%
    20:00 +17°C° 0.2 mm 3 mps 743 mmHg 79%
    21:00 +17°C° 0 mm 4 mps 744 mmHg 78%
    22:00 +15°C° 0 mm 4 mps 744 mmHg 77%
    23:00 +15°C° 0 mm 5 mps 745 mmHg 76%

    28 August, Wednesday

    Time Temperature Precipitation Wind Pressure Humidity
    00:00 +14°C° 0 mm 5 mps 745 mmHg 76%
    01:00 +13°C° 0 mm 4 mps 745 mmHg 77%
    02:00 +13°C° 0 mm 4 mps 746 mmHg 77%
    03:00 +12°C° 0 mm 4 mps 746 mmHg 81%
    04:00 +11°C° 0 mm 4 mps 747 mmHg 84%
    05:00 +11°C° 0 mm 3 mps 748 mmHg 87%
    06:00 +12°C° 0 mm 4 mps 748 mmHg 80%
    07:00 +13°C° 0 mm 4 mps 749 mmHg 73%
    08:00 +14°C° 0 mm 5 mps 749 mmHg 66%
    09:00 +16°C° 0 mm 5 mps 749 mmHg 58%
    10:00 +19°C° 0 mm 5 mps 749 mmHg 51%
    11:00 +20°C° 0 mm 5 mps 750 mmHg 44%
    12:00 +21°C° 0 mm 5 mps 749 mmHg 40%
    13:00 +22°C° 0 mm 4 mps 749 mmHg 36%
    14:00 +23°C° 0 mm 4 mps 749 mmHg 32%
    15:00 +24°C° 0 mm 3 mps 749 mmHg 31%
    16:00 +24°C° 0 mm 3 mps 749 mmHg 31%
    17:00 +24°C° 0 mm 2 mps 749 mmHg 30%
    18:00 +21°C° 0 mm 1 mps 749 mmHg 35%
    19:00 +19°C° 0 mm 1 mps 749 mmHg 40%
    20:00 +15°C° 0 mm 0 mps 749 mmHg 44%
    21:00 +16°C° 0 mm 1 mps 749 mmHg 45%
    22:00 +16°C° 0 mm 2 mps 749 mmHg 45%
    23:00 +16°C° 0 mm 2 mps 749 mmHg 46%
    Show more